[[{"header":{"parameterUnit":"m.s-1","parameterCategory":1,"la1":30.2991,"la2":30.254,"lo1":-89.0895,"lo2":-89.0444,"dy":0.0017,"dx":0.0017,"nx":28,"ny":28,"refTime":"2025-01-21T03:00:00:Z","depth":0,"parameterNumber":2,"parameterNumberName":"U-component_of_WINDS"},"data":[0,0,0,0,0,0,0,0,0,0,0,0,0,0,0,0,0,0,0,0,0,0,0,0,0,0,0,0,0,0,0,0,0,0,0,0,0,0,0,0,0,0,0,0,0,0,0,0,0,0,0,0,0,0,0,0,0,0,-0.2726,-0.2727,0,-0.2813,-0.2814,-0.2815,-0.2792,-0.2791,-0.2789,-0.2787,-0.288,-0.2884,-0.2888,0,0,0,0,0,0,0,0,0,0,0,0,0,-0.2543,-0.2546,-0.2726,-0.2727,-0.2728,-0.2813,-0.2814,-0.2815,-0.2793,-0.2791,-0.2788,-0.2786,-0.2879,-0.2884,-0.2888,0,0,0,0,0,0,0,0,0,0,0,0,0,-0.2625,-0.2547,-0.2726,-0.2727,-0.2728,-0.2813,-0.2814,-0.2816,-0.2793,-0.279,-0.2788,-0.2785,-0.2877,-0.2883,-0.2889,-0.2979,0,0,-0.2908,-0.2911,0,0,0,0,0,0,0,0,-0.2621,-0.2632,-0.2726,-0.2727,-0.2728,-0.2789,-0.2784,-0.2871,-0.2794,-0.2768,-0.2787,-0.2784,-0.2852,-0.286,-0.2882,-0.2984,-0.2988,-0.2908,-0.2912,-0.2915,-0.2917,0,0,0,0,0,0,0,-0.2615,-0.2628,-0.276,-0.2727,-0.2729,-0.2724,-0.2733,-0.28,-0.2824,-0.277,-0.2769,-0.2779,-0.2852,-0.2877,-0.2884,-0.2989,-0.2908,-0.2914,-0.2918,-0.292,-0.3169,-0.3172,0,0,0,0,0,0,-0.2608,-0.2624,-0.2758,-0.2763,-0.2667,-0.2729,-0.2739,-0.2772,-0.2823,-0.2828,-0.2782,-0.2778,-0.2867,-0.2877,-0.2888,-0.2998,-0.2915,-0.2921,-0.2924,-0.3167,-0.317,-0.3173,0,0,0,0,0,0,-0.2604,-0.262,-0.2754,-0.2693,-0.271,-0.2735,-0.2772,-0.2775,-0.2799,-0.2831,-0.2836,-0.2802,-0.2866,-0.2879,-0.2957,-0.3001,-0.2923,-0.2929,-0.3163,-0.3168,-0.3172,-0.3218,0,0,0,0,0,0,-0.2599,-0.2619,-0.2653,-0.2694,-0.2713,-0.2821,-0.2775,-0.2779,-0.281,-0.2806,-0.2852,-0.2857,-0.2865,-0.2948,-0.2963,-0.3008,-0.2934,-0.3159,-0.3165,-0.317,-0.3213,-0.3223,-0.3232,0,0,0,0,0,-0.2592,-0.2663,-0.2654,-0.2671,-0.2756,-0.2824,-0.2835,-0.2841,-0.2813,-0.2848,-0.2869,-0.2855,-0.2993,-0.2956,-0.2973,-0.302,-0.3157,-0.3163,-0.317,-0.3208,-0.3221,-0.3232,0,0,0,0,0,0,-0.2627,-0.2668,-0.266,-0.2745,-0.2781,-0.282,-0.2864,-0.2855,-0.29,-0.2895,-0.2902,-0.2913,-0.2993,-0.3014,-0.2972,-0.311,-0.3071,-0.3081,-0.3094,-0.3107,-0.3116,-0.3111,-0.2939,0,0,0,0,0,-0.2645,-0.2695,-0.2729,-0.2801,-0.2819,-0.2838,-0.2868,-0.287,-0.2908,-0.2923,-0.295,-0.2988,-0.304,-0.3074,-0.3123,-0.3214,-0.3225,-0.3255,-0.3265,-0.3273,-0.3283,-0.3334,-0.3349,-0.3195,-0.3195,-0.3195,0,0,-0.2682,-0.271,-0.2742,-0.2809,-0.2837,-0.289,-0.2851,-0.291,-0.295,-0.2933,-0.3008,-0.3028,-0.3071,-0.3156,-0.3195,-0.3177,-0.3327,-0.3282,-0.3288,-0.3293,-0.3343,-0.3357,-0.337,-0.32,-0.3199,-0.3198,0,0,-0.2777,-0.2803,-0.2867,-0.2895,-0.2938,-0.295,-0.2965,-0.3005,-0.3018,-0.3093,-0.3081,-0.3129,-0.3218,-0.325,-0.3277,-0.3384,-0.3374,-0.3399,-0.3453,-0.3502,-0.3514,-0.3525,-0.3565,-0.3579,-0.3408,-0.3408,-0.3408,0,-0.2819,-0.2898,-0.2901,-0.296,-0.2991,-0.2975,-0.3041,-0.3069,-0.3126,-0.3147,-0.3125,-0.3236,-0.3264,-0.3357,-0.3383,-0.3405,-0.3424,-0.3396,-0.3512,-0.3523,-0.3533,-0.3571,-0.3586,-0.3411,-0.3411,-0.3411,-0.341,0,-0.2947,-0.3003,-0.3049,-0.3103,-0.3138,-0.3201,-0.3214,-0.3249,-0.3248,-0.3262,-0.334,-0.3372,-0.3428,-0.345,-0.3449,-0.3543,-0.353,-0.351,-0.3471,-0.3551,-0.3587,-0.3601,-0.3416,-0.3415,-0.3414,-0.3413,0,0,-0.307,-0.3124,-0.3141,-0.3166,-0.3211,-0.3255,-0.3316,-0.337,-0.3401,-0.344,-0.3493,-0.3568,-0.3549,-0.358,-0.3583,-0.3626,-0.371,-0.36,-0.3602,-0.3622,-0.3818,-0.3835,-0.3852,-0.3703,-0.3705,-0.3708,-0.3815,0,-0.3171,-0.3279,-0.3283,-0.3381,-0.3433,-0.3419,-0.3473,-0.3507,-0.3522,-0.3569,-0.3586,-0.364,-0.361,-0.3629,-0.3671,-0.3691,-0.375,-0.3683,-0.3754,-0.3757,-0.3747,-0.387,-0.3889,-0.3989,-0.3829,-0.3831,-0.3833,0,-0.3304,-0.3346,-0.345,-0.3488,-0.351,-0.3558,-0.3608,-0.3652,-0.3691,-0.3699,-0.3733,-0.3729,-0.3794,-0.375,-0.3839,-0.3794,-0.3822,-0.3837,-0.3841,-0.385,-0.3802,-0.3885,-0.402,-0.4036,-0.3855,-0.3853,-0.3852,0,-0.3385,-0.3468,-0.3541,-0.3563,-0.3608,-0.3643,-0.3664,-0.3699,-0.3731,-0.3775,-0.3796,-0.3847,-0.3875,-0.3915,-0.3925,-0.3892,-0.4015,-0.3972,-0.4026,-0.4026,-0.4055,-0.4053,-0.4199,-0.4069,-0.4069,-0.4068,-0.4068,0,-0.35,-0.3564,-0.3579,-0.3624,-0.3696,-0.37,-0.3772,-0.379,-0.3822,-0.3872,-0.3862,-0.3908,-0.3918,-0.3967,-0.3975,-0.4049,-0.4061,-0.4071,-0.4073,-0.4073,-0.4073,-0.4095,-0.4089,-0.4072,-0.4071,-0.4071,-0.407,0,-0.3604,-0.3616,-0.3695,-0.3731,-0.3742,-0.3794,-0.3825,-0.3869,-0.3882,-0.3945,-0.396,-0.3981,-0.4038,-0.4052,-0.412,-0.4125,-0.4214,-0.4207,-0.4201,-0.4201,-0.4254,-0.425,-0.4422,-0.4445,-0.4297,-0.4299,-0.43,0,-0.3678,-0.3727,-0.3768,-0.38,-0.3822,-0.3873,-0.3906,-0.3911,-0.3946,-0.3993,-0.4032,-0.4087,-0.4133,-0.4225,-0.4247,-0.4299,-0.4296,-0.4352,-0.4304,-0.4303,-0.43,-0.4298,-0.4304,-0.4363,-0.4364,-0.4365,-0.4366,0,-0.3807,-0.3811,-0.3857,-0.3906,-0.3945,-0.3984,-0.4021,-0.4048,-0.4059,-0.4098,-0.4156,-0.4191,-0.426,-0.4316,-0.4368,-0.4391,-0.4382,-0.4381,-0.4397,-0.4399,-0.4394,-0.44,-0.4229,-0.4378,-0.4377,-0.4376,-0.4375,-0.4375,-0.39,-0.3944,-0.3979,-0.4032,-0.406,-0.4095,-0.4138,-0.4156,-0.4204,-0.4261,-0.4261,-0.4324,-0.4362,-0.4431,-0.4456,-0.4507,-0.449,-0.4511,-0.4518,-0.4524,-0.453,-0.4383,-0.4516,-0.4516,-0.4515,-0.4515,-0.4515,0,-0.4031,-0.4053,-0.4101,-0.4153,-0.4195,-0.418,-0.422,-0.4257,-0.4312,-0.4347,-0.4391,-0.4458,-0.4513,-0.4538,-0.4592,-0.4628,-0.4625,-0.4642,-0.4641,-0.4647,-0.4541,-0.4523,-0.4644,-0.4644,-0.4644,-0.4644,-0.4644,-0.4643,-0.4105,-0.4178,-0.4186,-0.4273,-0.4295,-0.4356,-0.4381,-0.4413,-0.4441,-0.4516,-0.4561,-0.4577,-0.4609,-0.4664,-0.4714,-0.472,-0.4742,-0.4761,-0.4766,-0.4667,-0.4654,-0.4642,-0.4625,-0.4765,-0.4766,-0.4868,-0.4869,-0.487]},{"header":{"parameterUnit":"m.s-1","parameterCategory":1,"la1":30.2991,"la2":30.254,"lo1":-89.0895,"lo2":-89.0444,"dy":0.0017,"dx":0.0017,"nx":28,"ny":28,"refTime":"2025-01-21T03:00:00:Z","depth":0,"parameterNumber":3,"parameterNumberName":"V-component_of_WINDS"},"data":[0,0,0,0,0,0,0,0,0,0,0,0,0,0,0,0,0,0,0,0,0,0,0,0,0,0,0,0,0,0,0,0,0,0,0,0,0,0,0,0,0,0,0,0,0,0,0,0,0,0,0,0,0,0,0,0,0,0,-7.8431,-7.8433,0,-7.8587,-7.8589,-7.8591,-7.8452,-7.8446,-7.844,-7.8435,-7.859,-7.8599,-7.8608,0,0,0,0,0,0,0,0,0,0,0,0,0,-7.8005,-7.8014,-7.8431,-7.8433,-7.8435,-7.8587,-7.8589,-7.8591,-7.8453,-7.8446,-7.8439,-7.8432,-7.8587,-7.8598,-7.8609,0,0,0,0,0,0,0,0,0,0,0,0,0,-7.8179,-7.8017,-7.843,-7.8384,-7.8381,-7.8587,-7.8589,-7.8592,-7.8454,-7.8445,-7.8437,-7.8429,-7.8583,-7.8597,-7.8611,-7.8869,0,0,-7.8654,-7.866,0,0,0,0,0,0,0,0,-7.8169,-7.8195,-7.8389,-7.8387,-7.8385,-7.8491,-7.8496,-7.8684,-7.8456,-7.8426,-7.8435,-7.8425,-7.8564,-7.8579,-7.8627,-7.8876,-7.8882,-7.8655,-7.8664,-7.867,-7.8674,0,0,0,0,0,0,0,-7.8157,-7.8187,-7.8492,-7.8392,-7.8389,-7.8353,-7.8368,-7.8531,-7.8541,-7.8428,-7.8418,-7.8439,-7.8561,-7.8613,-7.8629,-7.8885,-7.8655,-7.8667,-7.8676,-7.8682,-7.9352,-7.936,0,0,0,0,0,0,-7.8151,-7.8178,-7.8487,-7.8497,-7.8254,-7.8368,-7.8385,-7.8466,-7.8539,-7.8542,-7.8446,-7.8432,-7.8593,-7.8613,-7.8634,-7.8941,-7.867,-7.8683,-7.8691,-7.9342,-7.9354,-7.9364,0,0,0,0,0,0,-7.8142,-7.818,-7.8481,-7.8335,-7.8371,-7.8384,-7.8476,-7.8473,-7.8526,-7.8552,-7.8553,-7.8499,-7.8588,-7.8614,-7.8811,-7.8944,-7.8689,-7.8702,-7.9331,-7.9346,-7.9359,-7.9556,0,0,0,0,0,0,-7.8131,-7.8178,-7.8277,-7.8338,-7.8379,-7.8658,-7.8484,-7.8482,-7.8551,-7.8534,-7.8602,-7.8605,-7.8583,-7.8791,-7.8826,-7.8959,-7.8713,-7.9319,-7.9338,-7.9354,-7.9538,-7.9575,-7.9607,0,0,0,0,0,-7.8116,-7.8326,-7.8283,-7.8321,-7.8504,-7.8666,-7.8689,-7.8662,-7.8562,-7.8662,-7.8678,-7.8602,-7.8924,-7.8813,-7.885,-7.899,-7.9311,-7.9333,-7.9353,-7.9522,-7.9568,-7.9606,0,0,0,0,0,0,-7.8278,-7.8333,-7.8286,-7.8522,-7.8591,-7.8643,-7.8767,-7.8711,-7.8808,-7.8788,-7.8747,-7.8764,-7.8972,-7.9,-7.8875,-7.9242,-7.9101,-7.9131,-7.9217,-7.926,-7.9294,-7.9283,-7.8725,0,0,0,0,0,-7.8342,-7.8471,-7.851,-7.8715,-7.8752,-7.8754,-7.8823,-7.8796,-7.8865,-7.8893,-7.8924,-7.8992,-7.9108,-7.9185,-7.9293,-7.954,-7.9552,-7.9655,-7.9689,-7.9717,-7.9744,-7.9876,-7.9921,-7.9433,-7.9432,-7.9432,0,0,-7.8474,-7.852,-7.8603,-7.8749,-7.8798,-7.8931,-7.8779,-7.8926,-7.9024,-7.8914,-7.9103,-7.9128,-7.9201,-7.9425,-7.9524,-7.9454,-7.9881,-7.9744,-7.9767,-7.9778,-7.9902,-7.9948,-7.9989,-7.9447,-7.9444,-7.9442,0,0,-7.8783,-7.8831,-7.9006,-7.9059,-7.9137,-7.9137,-7.918,-7.924,-7.9253,-7.9442,-7.9363,-7.9477,-7.9678,-7.9733,-7.9787,-8.0116,-8.005,-8.0152,-8.0333,-8.0462,-8.0501,-8.0535,-8.0652,-8.0695,-8.0178,-8.0178,-8.0179,0,-7.8937,-7.9136,-7.9103,-7.9256,-7.9322,-7.923,-7.9407,-7.9459,-7.9568,-7.9615,-7.9535,-7.9785,-7.9828,-8.0062,-8.0143,-8.019,-8.0236,-8.0145,-8.0498,-8.0532,-8.0563,-8.0675,-8.0719,-8.019,-8.0189,-8.0188,-8.0187,0,-7.9321,-7.946,-7.9591,-7.9701,-7.9781,-7.9945,-7.9936,-8.002,-7.9986,-7.9994,-8.0186,-8.0234,-8.035,-8.0404,-8.0371,-8.0634,-8.0588,-8.0504,-8.0362,-8.0622,-8.0726,-8.0769,-8.0208,-8.0203,-8.02,-8.0197,0,0,-7.9737,-7.9827,-7.9876,-7.9924,-8.0003,-8.0109,-8.0267,-8.0383,-8.0456,-8.0534,-8.0665,-8.0837,-8.076,-8.0822,-8.0794,-8.0907,-8.1164,-8.0809,-8.081,-8.0874,-8.1457,-8.152,-8.157,-8.112,-8.1128,-8.1134,-8.1451,0,-8.0049,-8.0328,-8.0303,-8.0567,-8.0694,-8.0608,-8.0746,-8.0808,-8.082,-8.0927,-8.0938,-8.1061,-8.095,-8.0986,-8.1095,-8.1111,-8.1281,-8.1087,-8.1241,-8.1247,-8.1227,-8.1625,-8.1692,-8.1989,-8.1491,-8.1498,-8.1503,0,-8.0451,-8.0545,-8.0823,-8.0882,-8.0934,-8.1059,-8.1162,-8.1267,-8.1335,-8.1335,-8.1404,-8.1356,-8.1514,-8.1368,-8.1583,-8.1452,-8.1513,-8.153,-8.1541,-8.1555,-8.1392,-8.165,-8.2082,-8.2128,-8.1566,-8.1561,-8.1557,0,-8.0728,-8.0923,-8.1114,-8.1158,-8.1232,-8.1322,-8.1356,-8.1416,-8.1487,-8.1576,-8.1621,-8.1727,-8.1785,-8.1867,-8.1849,-8.1744,-8.2069,-8.1921,-8.2073,-8.2074,-8.2146,-8.2142,-8.2596,-8.2185,-8.2184,-8.2183,-8.2182,0,-8.108,-8.1253,-8.124,-8.1358,-8.1548,-8.1516,-8.1705,-8.1727,-8.1781,-8.19,-8.1831,-8.1944,-8.1912,-8.2023,-8.2009,-8.219,-8.2216,-8.2219,-8.2214,-8.2227,-8.2226,-8.2267,-8.2246,-8.2195,-8.2192,-8.219,-8.2188,0,-8.1422,-8.1421,-8.1623,-8.1677,-8.1694,-8.1832,-8.1876,-8.1986,-8.1991,-8.2143,-8.2176,-8.2184,-8.231,-8.23,-8.2441,-8.2432,-8.2656,-8.2625,-8.2634,-8.2628,-8.278,-8.2767,-8.3276,-8.3342,-8.2888,-8.2892,-8.2896,0,-8.1648,-8.1779,-8.1847,-8.1923,-8.1964,-8.2087,-8.2159,-8.2131,-8.2209,-8.2296,-8.2395,-8.2516,-8.2611,-8.2817,-8.2834,-8.2942,-8.2914,-8.3085,-8.2929,-8.2938,-8.2917,-8.291,-8.2923,-8.3116,-8.3121,-8.3125,-8.3128,0,-8.2048,-8.2041,-8.2148,-8.2257,-8.2346,-8.2429,-8.2504,-8.2569,-8.2549,-8.2639,-8.2769,-8.2844,-8.2989,-8.3109,-8.3212,-8.3244,-8.3184,-8.3177,-8.3218,-8.3233,-8.3233,-8.3236,-8.2719,-8.3166,-8.3162,-8.3159,-8.3157,-8.3156,-8.2339,-8.2452,-8.2518,-8.264,-8.2694,-8.2766,-8.2872,-8.2891,-8.2999,-8.3117,-8.3093,-8.3239,-8.3302,-8.3433,-8.3476,-8.3588,-8.3526,-8.3585,-8.36,-8.3616,-8.3634,-8.3215,-8.3606,-8.3605,-8.3604,-8.3603,-8.3603,0,-8.2736,-8.2774,-8.2887,-8.2996,-8.3092,-8.3028,-8.3107,-8.3191,-8.3322,-8.3386,-8.3482,-8.363,-8.3746,-8.3772,-8.3883,-8.3968,-8.3943,-8.3998,-8.3992,-8.4,-8.3683,-8.3637,-8.4016,-8.4016,-8.4016,-8.4016,-8.4016,-8.4016,-8.2955,-8.3142,-8.3142,-8.3355,-8.339,-8.3535,-8.3586,-8.3652,-8.3703,-8.3873,-8.397,-8.3987,-8.4035,-8.4149,-8.4252,-8.4256,-8.43,-8.4367,-8.4361,-8.4064,-8.4022,-8.3983,-8.394,-8.4377,-8.4377,-8.4668,-8.4671,-8.4673]}]]